Location: Splawn
(30.9202°N, 96.9858°W)
Time: 14:36:01
(UTC+00:00)

Transit 2A Rocket - Pass Details

Date: 03 March 2020
Orbit: 588 x 915 km, 66.7° (Epoch: 07 April)

Event Time Altitude Azimuth Distance (km) Brightness Sun altitude
Rises 11:20:26 0° 341° (NNW) 3,239 8.1 -20.4°
Reaches altitude 10° 11:22:49 10° 346° (NNW) 2,360 7.4 -19.8°
Maximum altitude 11:28:09 52° 63° (ENE) 1,034 6.0 -18.7°
Drops below altitude 10° 11:33:53 10° 139° (SE) 2,533 8.2 -17.5°
Sets 11:36:31 0° 144° (SE) 3,498 8.9 -16.9°
